Miscellaneous Local Product
Issued by NWS North Platte, NE

Home | Current Version | Previous Version | Text Only | Print | Product List | Glossary On
Versions: 1 2 3 4 5 6 7 8 9 10 11 12 13 14 15 16 17 18 19 20 21 22 23 24 25 26 27 28 29 30 31 32 33 34 35 36 37 38 39 40 41 42 43 44 45 46 47 48 49 50
000
AXUS43 KLBF 060310
MISLBF


WESTERN AND NORTH CENTRAL NEBRASKA HOURLY WEATHER ROUNDUP
NATIONAL WEATHER SERVICE NORTH PLATTE NE
900 PM CST THU MAR 05 2015

***STATIONS NOT REPORTING VARIABLES SUCH AS SKY/WEATHER OR
PRESSURE ARE PROVIDED BY THE NEBRASKA DEPARTMENT OF
ROADS...RAWS...AND APRS NETWORKS...AND ARE NOT UNDER
NATIONAL WEATHER SERVICE QUALITY CONTROL***

...OBSERVATIONS IN AND NEAR THE EASTERN PANHANDLE OF NEBRASKA...

CITY           SKY/WX    TMP DP  RH WIND       PRES   REMARKS
PINE RIDGE     CLEAR     33  21  61 W6        30.18R WCI  28
CHADRON        CLEAR     30  20  66 W10       30.18F WCI  21
ALLIANCE       CLEAR     19  11  70 SW7       30.19S WCI  10
SIDNEY         CLEAR     31  18  58 W10       30.23F WCI  22
WHITECLAY        N/A     34  19  55 W14         N/A  WCI  24
CRESCENT LAKE    N/A     30  10  43 W7          N/A  WCI  23
LISCO            N/A     32  12  43 W9          N/A  WCI  24
BIG SPRINGS      N/A     28  18  66 W5          N/A  WCI  23
LEWELLEN         N/A     30   7  37 CALM        N/A
$$

...OBSERVATIONS IN NORTH CENTRAL NEBRASKA...

CITY           SKY/WX    TMP DP  RH WIND       PRES   REMARKS
VALENTINE      CLEAR     29  17  61 W6        30.16S WCI  23
THEDFORD       CLEAR     32  13  44 W7        30.19S WCI  26
AINSWORTH      CLEAR     28  10  45 W3        30.16S
O`NEILL        MOCLDY    31  11  43 S7        30.18F WCI  24
ORD            CLEAR     22   7  52 CALM      30.20F
BROKEN BOW     CLEAR     34  11  38 S3        30.19R
BROWNLEE         N/A     30   5  34 W8          N/A  WCI  23
SPRINGVIEW       N/A     25  12  56 CALM        N/A
BREWSTER         N/A     32  12  43 SW7         N/A  WCI  26
ROSE             N/A     37  19  48 E6          N/A  WCI  33
NEWPORT          N/A     28  17  63 S7          N/A  WCI  21
SARGENT          N/A     29  13  50 CALM        N/A
COMSTOCK         N/A     34  12  40 S15         N/A  WCI  24
CHAMBERS         N/A     33   7  34 S6          N/A  WCI  27
EWING            N/A     31  13  46 S5          N/A  WCI  26
$$

...OBSERVATIONS IN SOUTHWEST NEBRASKA AND FAR NORTHEAST COLORADO...

CITY           SKY/WX    TMP DP  RH WIND       PRES   REMARKS
WRAY           FAIR      32  18  55 SW8       30.26R WCI  25
HOLYOKE        FAIR      28  18  64 W7        30.25R WCI  21
IMPERIAL         N/A     33  12  41 W12       30.24R WCI  24
OGALLALA       CLEAR     28  14  54 W5        30.23R WCI  23
NORTH PLATTE   CLEAR     25  11  55 CALM      30.21R
MCCOOK         CLEAR     32  14  47 SW9       30.24R WCI  24
LEXINGTON      CLEAR     33   8  34 S7        30.20F WCI  27
PAXTON           N/A     30  14  51 CALM        N/A
BRADY            N/A     29  10  45 CALM        N/A
GOTHENBURG       N/A     34  12  40 CALM        N/A
CALLAWAY         N/A     29  10  44 W3          N/A
$$

...NORTH PLATTE AREA...

CITY           SKY/WX    TMP DP  RH WIND       PRES   REMARKS
AIRPORT        CLEAR     25  11  55 CALM      30.21R
DOWNTOWN         N/A     35  13  41 CALM        N/A
$$

...SOME WEATHER OBSERVATIONS FROM AROUND THE REGION...

CITY           SKY/WX    TMP DP  RH WIND       PRES   REMARKS
DENVER         PTCLDY    27  18  69 SW7       30.25R WCI  19
LARAMIE        PTCLDY    23  11  60 W7        30.23R WCI  15
CHEYENNE       PTCLDY    32  14  47 W10       30.22S WCI  24
SCOTTSBLUFF    CLEAR     29  18  63 NW7       30.22S WCI  22
RAPID CITY     CLEAR     32  15  49 W5        30.14R WCI  27
PIERRE         CLEAR     20  15  81 SW5       30.11R WCI  13
WINNER         FAIR      33  16  49 SW9       30.12F WCI  25
SIOUX FALLS    CLEAR     24   7  48 S14       30.21F WCI  12
OMAHA          CLEAR     25   6  44 SE14      30.38F WCI  13
GRAND ISLAND   CLEAR     30   9  41 S14       30.25F WCI  19
KANSAS CITY    CLEAR     22   7  52 SE8       30.47F WCI  12
WICHITA        PTCLDY    32  20  61 S9        30.43R WCI  24
HAYS           MOCLDY    36   9  32 S13       30.31S WCI  27
LIBERAL        CLEAR     34  19  55 SW9       30.34R WCI  26
GOODLAND       PTCLDY    32  18  56 W9        30.27S WCI  24
$$



USA.gov is the U.S. government's official web portal to all federal, state and local government web resources and services.